KLM225 EHEH-EHEH

Flight info

Callsign KLM225
Flight time 0h 20m
Altitude 30000
Route DLN DCT 5232N00550E 5305N00448E 5307N00450E DCT 5232N00550E DCT DLN
Aircraft B77W/H-SDE1E2E3FGHIJ2J3J4J5M1RWXY/LB1D1

Departure

Time 2026-05-05 15:08
Airport Eindhoven Airport (EHEH)

Arrival

Time 2026-05-05 15:29
Airport Eindhoven Airport (EHEH)
Time Latitude Longitude Altitude Speed Heading
2026-05-05 14:25 51.45831 5.38995 79 ft 0 kts 125°
2026-05-05 14:38 51.45837 5.38979 85 ft 2 kts 125°
2026-05-05 14:39 51.45847 5.38958 85 ft 2 kts 126°
2026-05-05 14:39 51.45858 5.38940 85 ft 2 kts 172°
2026-05-05 14:39 51.45875 5.38936 84 ft 2 kts 182°
2026-05-05 14:39 51.45890 5.38943 82 ft 2 kts 213°
2026-05-05 14:40 51.45902 5.38956 85 ft 1 kts 216°
2026-05-05 14:40 51.45904 5.38958 85 ft 0 kts 216°
2026-05-05 14:43 51.45902 5.38957 85 ft 1 kts 215°
2026-05-05 14:43 51.45899 5.38953 85 ft 0 kts 214°
2026-05-05 14:49 51.45897 5.38951 85 ft 2 kts 214°
2026-05-05 14:49 51.45862 5.38912 85 ft 11 kts 214°
2026-05-05 14:50 51.45807 5.38849 84 ft 7 kts 224°
2026-05-05 14:50 51.45802 5.38769 82 ft 8 kts 288°
2026-05-05 14:50 51.45830 5.38689 84 ft 9 kts 304°
2026-05-05 14:50 51.45869 5.38603 85 ft 12 kts 306°
2026-05-05 14:51 51.45951 5.38421 86 ft 30 kts 306°
2026-05-05 14:51 51.45983 5.38273 85 ft 12 kts 239°
2026-05-05 14:51 51.45901 5.38167 84 ft 18 kts 214°
2026-05-05 14:51 51.45863 5.38125 84 ft 0 kts 215°
2026-05-05 14:52 51.45858 5.38119 84 ft 5 kts 215°
2026-05-05 14:52 51.45838 5.38096 85 ft 5 kts 216°
2026-05-05 14:52 51.45826 5.38083 85 ft 0 kts 216°
2026-05-05 14:52 51.45776 5.38027 84 ft 20 kts 215°
2026-05-05 14:53 51.45645 5.37880 85 ft 14 kts 215°
2026-05-05 14:53 51.45557 5.37783 84 ft 14 kts 215°
2026-05-05 14:53 51.45521 5.37742 84 ft 8 kts 215°
2026-05-05 14:53 51.45426 5.37635 84 ft 22 kts 215°
2026-05-05 14:54 51.45347 5.37545 85 ft 15 kts 215°
2026-05-05 14:54 51.45240 5.37425 84 ft 21 kts 214°
2026-05-05 14:54 51.45115 5.37286 85 ft 18 kts 215°
2026-05-05 14:54 51.45013 5.37172 84 ft 17 kts 215°
2026-05-05 14:55 51.44958 5.37109 85 ft 14 kts 215°
2026-05-05 14:55 51.44837 5.36974 84 ft 23 kts 215°
2026-05-05 14:55 51.44641 5.36755 84 ft 42 kts 215°
2026-05-05 14:55 51.44409 5.36496 84 ft 39 kts 215°
2026-05-05 14:56 51.44216 5.36280 85 ft 29 kts 215°
2026-05-05 14:56 51.44087 5.36135 83 ft 21 kts 215°
2026-05-05 14:56 51.44009 5.36075 83 ft 8 kts 169°
2026-05-05 14:56 51.43994 5.36086 84 ft 0 kts 148°
2026-05-05 15:05 51.43991 5.36090 79 ft 2 kts 146°
2026-05-05 15:05 51.43973 5.36115 84 ft 8 kts 134°
2026-05-05 15:06 51.43942 5.36213 84 ft 11 kts 84°
2026-05-05 15:06 51.43992 5.36307 85 ft 11 kts 36°
2026-05-05 15:06 51.44015 5.36332 82 ft 0 kts 35°
2026-05-05 15:07 51.44034 5.36354 85 ft 22 kts 35°
2026-05-05 15:08 51.44410 5.36773 84 ft 112 kts 35°
2026-05-05 15:08 51.45287 5.37753 152 ft 187 kts 34°
2026-05-05 15:08 51.46442 5.39048 961 ft 212 kts 35°
2026-05-05 15:08 51.47649 5.40451 2421 ft 218 kts 36°
2026-05-05 15:09 51.48972 5.41980 3381 ft 251 kts 36°
2026-05-05 15:09 51.50517 5.43751 3984 ft 297 kts 36°
2026-05-05 15:09 51.52378 5.45834 4027 ft 356 kts 33°
2026-05-05 15:09 51.54387 5.48032 4127 ft 331 kts 35°
2026-05-05 15:10 51.56247 5.50007 4053 ft 311 kts 27°
2026-05-05 15:10 51.58284 5.50847 4023 ft 299 kts
2026-05-05 15:10 51.60218 5.50228 3974 ft 272 kts 334°
2026-05-05 15:10 51.61593 5.48409 3968 ft 247 kts 304°
2026-05-05 15:11 51.62189 5.45794 4043 ft 260 kts 276°
2026-05-05 15:11 51.61941 5.42909 3991 ft 260 kts 246°
2026-05-05 15:11 51.60932 5.40637 3991 ft 249 kts 224°
2026-05-05 15:11 51.59664 5.38714 4017 ft 253 kts 223°
2026-05-05 15:12 51.58355 5.36775 4019 ft 258 kts 223°
2026-05-05 15:12 51.57031 5.34828 4008 ft 258 kts 223°
2026-05-05 15:12 51.55709 5.32888 3991 ft 256 kts 223°
2026-05-05 15:12 51.54404 5.30975 4000 ft 253 kts 223°
2026-05-05 15:13 51.53106 5.29075 3980 ft 251 kts 223°
2026-05-05 15:13 51.51813 5.27195 4007 ft 252 kts 223°
2026-05-05 15:13 51.50501 5.25289 4013 ft 257 kts 223°
2026-05-05 15:13 51.49168 5.23347 4012 ft 258 kts 222°
2026-05-05 15:14 51.47838 5.21411 3999 ft 259 kts 223°
2026-05-05 15:14 51.46529 5.19510 4012 ft 254 kts 223°
2026-05-05 15:14 51.45214 5.17605 3918 ft 254 kts 223°
2026-05-05 15:14 51.43864 5.15783 3546 ft 252 kts 210°
2026-05-05 15:15 51.42214 5.14943 3039 ft 250 kts 177°
2026-05-05 15:15 51.40514 5.15354 2548 ft 247 kts 162°
2026-05-05 15:15 51.38854 5.16019 2276 ft 243 kts 163°
2026-05-05 15:15 51.37248 5.16699 2136 ft 233 kts 158°
2026-05-05 15:16 51.35908 5.18023 1740 ft 226 kts 126°
2026-05-05 15:16 51.35218 5.20207 1323 ft 218 kts 103°
2026-05-05 15:16 51.34796 5.22535 1021 ft 216 kts 102°
2026-05-05 15:16 51.34699 5.24933 1024 ft 223 kts 71°
2026-05-05 15:17 51.35513 5.26983 976 ft 212 kts 44°
2026-05-05 15:17 51.36620 5.28602 1043 ft 220 kts 37°
2026-05-05 15:17 51.38008 5.29722 959 ft 228 kts 26°
2026-05-05 15:17 51.39335 5.31116 918 ft 228 kts 35°
2026-05-05 15:18 51.40625 5.32538 829 ft 225 kts 34°
2026-05-05 15:18 51.41916 5.33941 584 ft 223 kts 36°
2026-05-05 15:18 51.43165 5.35372 240 ft 214 kts 35°
2026-05-05 15:18 51.44305 5.36650 90 ft 185 kts 34°
2026-05-05 15:19 51.45344 5.37811 355 ft 190 kts 35°
2026-05-05 15:19 51.46486 5.39131 913 ft 222 kts 43°
2026-05-05 15:19 51.47578 5.40975 1831 ft 231 kts 38°
2026-05-05 15:19 51.49157 5.42436 1609 ft 287 kts 17°
2026-05-05 15:20 51.51043 5.42936 1357 ft 266 kts
2026-05-05 15:20 51.52735 5.42281 1250 ft 242 kts 330°
2026-05-05 15:20 51.53877 5.40455 1169 ft 226 kts 298°
2026-05-05 15:20 51.54197 5.37985 1194 ft 239 kts 264°
2026-05-05 15:21 51.53614 5.35383 1456 ft 258 kts 236°
2026-05-05 15:21 51.52349 5.33385 1681 ft 261 kts 218°
2026-05-05 15:21 51.50889 5.31611 1836 ft 264 kts 217°
2026-05-05 15:21 51.49391 5.29823 1919 ft 271 kts 217°
2026-05-05 15:22 51.47869 5.28003 1947 ft 273 kts 217°
2026-05-05 15:22 51.46346 5.26182 2007 ft 272 kts 217°
2026-05-05 15:22 51.44827 5.24369 2003 ft 272 kts 217°
2026-05-05 15:22 51.43317 5.22568 1985 ft 269 kts 217°
2026-05-05 15:23 51.41815 5.20783 1988 ft 268 kts 217°
2026-05-05 15:23 51.40318 5.19010 2002 ft 267 kts 216°
2026-05-05 15:23 51.38808 5.17220 2005 ft 272 kts 217°
2026-05-05 15:23 51.37284 5.15416 2017 ft 271 kts 217°
2026-05-05 15:24 51.35724 5.13900 1957 ft 253 kts 193°
2026-05-05 15:24 51.34090 5.13918 1960 ft 234 kts 152°
2026-05-05 15:24 51.32917 5.15508 2043 ft 221 kts 113°
2026-05-05 15:24 51.32660 5.17859 2020 ft 216 kts 85°
2026-05-05 15:25 51.32454 5.20238 1968 ft 221 kts 113°
2026-05-05 15:25 51.31765 5.22428 1981 ft 221 kts 103°
2026-05-05 15:25 51.31778 5.24818 2002 ft 215 kts 68°
2026-05-05 15:25 51.32644 5.26643 1993 ft 205 kts 32°
2026-05-05 15:26 51.33979 5.27238 1990 ft 196 kts
2026-05-05 15:26 51.35276 5.27577 2010 ft 184 kts 17°
2026-05-05 15:26 51.36456 5.28279 1967 ft 181 kts 26°
2026-05-05 15:26 51.37578 5.29240 1694 ft 180 kts 30°
2026-05-05 15:27 51.38599 5.30268 1459 ft 170 kts 35°
2026-05-05 15:27 51.39546 5.31327 1259 ft 163 kts 35°
2026-05-05 15:27 51.40461 5.32352 988 ft 157 kts 36°
2026-05-05 15:27 51.41325 5.33320 786 ft 150 kts 34°
2026-05-05 15:28 51.42181 5.34278 578 ft 149 kts 35°
2026-05-05 15:28 51.43017 5.35213 362 ft 144 kts 36°
2026-05-05 15:28 51.43855 5.36151 172 ft 150 kts 34°
2026-05-05 15:28 51.44707 5.37101 86 ft 146 kts 36°
2026-05-05 15:29 51.45380 5.37861 87 ft 91 kts 35°
2026-05-05 15:29 51.45736 5.38261 84 ft 37 kts 35°
2026-05-05 15:29 51.45876 5.38417 86 ft 16 kts 33°
2026-05-05 15:29 51.45949 5.38409 86 ft 11 kts 324°
2026-05-05 15:30 51.45994 5.38323 84 ft 9 kts 314°
2026-05-05 15:30 51.46049 5.38335 84 ft 9 kts 32°
2026-05-05 15:30 51.46099 5.38388 85 ft 9 kts 34°
2026-05-05 15:30 51.46149 5.38444 84 ft 9 kts 38°
2026-05-05 15:31 51.46168 5.38521 83 ft 0 kts 103°
2026-05-05 15:34 51.46163 5.38544 82 ft 6 kts 112°
2026-05-05 15:34 51.46140 5.38603 85 ft 0 kts 125°
2026-05-05 15:38 51.46094 5.38706 81 ft 15 kts 125°
2026-05-05 15:38 51.46073 5.38753 84 ft 4 kts 125°
2026-05-05 15:38 51.46058 5.38788 84 ft 4 kts 125°
2026-05-05 15:38 51.46039 5.38830 84 ft 5 kts 125°
2026-05-05 15:39 51.46017 5.38881 82 ft 6 kts 125°
2026-05-05 15:39 51.45991 5.38938 85 ft 7 kts 125°
2026-05-05 15:39 51.45964 5.38977 84 ft 0 kts 149°
2026-05-05 15:39 51.45963 5.38978 79 ft 1 kts 149°
2026-05-05 15:40 51.45941 5.38984 83 ft 6 kts 185°
2026-05-05 15:40 51.45855 5.38906 83 ft 23 kts 215°
2026-05-05 15:40 51.45702 5.38787 84 ft 20 kts 167°
2026-05-05 15:40 51.45659 5.38809 84 ft 0 kts 161°